| time (UTC) | temp C | wind direction | speed KPH | gust KPH | rain 1hr cm | rain 24hr cm | rain mn cm | humidity % | barometer mb |
| 20260504081542 | 8 | 275 | 0.0 | 0.0 | 0.00 | 0.00 | 0.00 | 73 | 1012.5 |
| 20260504044517 | 8 | 275 | 0.0 | 0.0 | 0.00 | 0.00 | 0.00 | 60 | 1013.1 |
| 20260504043010 | 8 | 275 | 0.0 | 0.0 | 0.00 | 0.00 | 0.00 | 59 | 1013.0 |
| 20260504041551 | 8 | 275 | 0.0 | 0.0 | 0.00 | 0.00 | 0.00 | 58 | 1013.1 |
| 20260504040055 | 8 | 275 | 0.0 | 0.0 | 0.00 | 0.00 | 0.00 | 58 | 1013.0 |
| 20260504034544 | 8 | 275 | 0.0 | 0.0 | 0.00 | 0.00 | 0.00 | 57 | 1013.1 |
| 20260504033021 | 8 | 275 | 0.0 | 0.0 | 0.00 | 0.00 | 0.00 | 58 | 1013.0 |
| 20260504031513 | 9 | 275 | 0.0 | 0.0 | 0.00 | 0.00 | 0.00 | 57 | 1012.8 |
| 20260504030011 | 9 | 275 | 0.0 | 0.0 | 0.00 | 0.00 | 0.00 | 56 | 1012.8 |
| 20260504024505 | 10 | 275 | 0.0 | 0.0 | 0.00 | 0.00 | 0.00 | 56 | 1012.6 |
| 20260504023039 | 10 | 275 | 0.0 | 0.0 | 0.00 | 0.00 | 0.00 | 55 | 1012.6 |
| 20260504021535 | 10 | 275 | 0.0 | 0.0 | 0.00 | 0.00 | 0.00 | 52 | 1012.5 |
| 20260504020030 | 10 | 275 | 0.0 | 0.0 | 0.00 | 0.00 | 0.00 | 50 | 1012.5 |
| 20260504014540 | 11 | 275 | 0.0 | 0.0 | 0.00 | 0.00 | 0.00 | 52 | 1012.3 |
| 20260504013014 | 11 | 275 | 0.0 | 0.0 | 0.00 | 0.00 | 0.00 | 50 | 1012.2 |
| 20260504011511 | 12 | 275 | 0.0 | 0.0 | 0.00 | 0.00 | 0.00 | 47 | 1012.2 |
| 20260504010115 | 12 | 275 | 0.0 | 0.0 | 0.00 | 0.00 | 0.00 | 45 | 1012.1 |
| 20260504004548 | 12 | 275 | 0.0 | 0.0 | 0.00 | 0.00 | 0.00 | 42 | 1012.0 |
| 20260504003043 | 13 | 275 | 0.0 | 0.0 | 0.00 | 0.00 | 0.00 | 40 | 1011.9 |
| 20260504001544 | 13 | 275 | 0.0 | 0.0 | 0.00 | 0.00 | 0.00 | 39 | 1011.9 |
| 20260504000041 | 14 | 275 | 0.0 | 0.0 | 0.00 | 0.00 | 0.00 | 38 | 1011.7 |
| 20260503234524 | 15 | 275 | 0.0 | 0.0 | 0.00 | 0.00 | 0.00 | 38 | 1011.6 |
| 20260503233019 | 15 | 275 | 0.0 | 0.0 | 0.00 | 0.00 | 0.00 | 36 | 1011.5 |
| 20260503231509 | 15 | 275 | 0.0 | 0.0 | 0.00 | 0.00 | 0.00 | 34 | 1011.3 |
| 20260503230100 | 16 | 273 | 0.0 | 3.2 | 0.00 | 0.00 | 0.00 | 33 | 1011.3 |
| 20260503230002 | 16 | 273 | 0.0 | 3.2 | 0.00 | 0.00 | 0.00 | 32 | 1011.3 |
| 20260503224556 | 16 | 111 | 0.0 | 0.0 | 0.00 | 0.00 | 0.00 | 35 | 1011.4 |
| 20260503223046 | 16 | 111 | 0.0 | 0.0 | 0.00 | 0.00 | 0.00 | 34 | 1011.4 |
| 20260503221548 | 16 | 331 | 0.0 | 6.4 | 0.00 | 0.00 | 0.00 | 31 | 1011.4 |
| 20260503220032 | 16 | 325 | 0.0 | 6.4 | 0.00 | 0.00 | 0.00 | 33 | 1011.4 |
| 20260503214524 | 16 | 59 | 0.0 | 6.4 | 0.00 | 0.00 | 0.00 | 32 | 1011.5 |
| 20260503213017 | 16 | 335 | 0.0 | 3.2 | 0.00 | 0.00 | 0.00 | 31 | 1011.7 |
| 20260503211506 | 16 | 287 | 0.0 | 9.7 | 0.00 | 0.00 | 0.00 | 30 | 1011.5 |
| 20260503210100 | 16 | 329 | 0.0 | 6.4 | 0.00 | 0.00 | 0.00 | 33 | 1011.7 |
| 20260503204601 | 16 | 260 | 0.0 | 8.0 | 0.00 | 0.00 | 0.00 | 33 | 1011.8 |
| 20260503203039 | 17 | 282 | 0.0 | 8.0 | 0.00 | 0.00 | 0.00 | 35 | 1011.8 |
| 20260503201539 | 17 | 48 | 0.0 | 1.6 | 0.00 | 0.00 | 0.00 | 38 | 1012.0 |
| 20260503200028 | 16 | 278 | 0.0 | 6.4 | 0.00 | 0.00 | 0.00 | 31 | 1012.4 |
| 20260503194520 | 16 | 297 | 0.0 | 6.4 | 0.00 | 0.00 | 0.00 | 33 | 1012.2 |
| 20260503193014 | 16 | 259 | 1.6 | 6.4 | 0.00 | 0.00 | 0.00 | 34 | 1012.6 |
| 20260503191513 | 16 | 280 | 0.0 | 12.9 | 0.00 | 0.00 | 0.00 | 38 | 1012.9 |
| 20260503190001 | 16 | 306 | 0.0 | 3.2 | 0.00 | 0.00 | 0.00 | 34 | 1012.9 |
| 20260503184543 | 16 | 308 | 0.0 | 9.7 | 0.00 | 0.00 | 0.00 | 37 | 1013.1 |
| 20260503183050 | 15 | 288 | 0.0 | 9.7 | 0.00 | 0.00 | 0.00 | 37 | 1013.4 |
| 20260503181532 | 15 | 279 | 1.6 | 8.0 | 0.00 | 0.00 | 0.00 | 38 | 1013.4 |
| 20260503180028 | 15 | 329 | 0.0 | 9.7 | 0.00 | 0.00 | 0.00 | 41 | 1013.4 |
| 20260503174515 | 14 | 292 | 0.0 | 8.0 | 0.00 | 0.00 | 0.00 | 37 | 1013.7 |
| 20260503173008 | 13 | 304 | 1.6 | 11.3 | 0.00 | 0.00 | 0.00 | 39 | 1013.9 |
| 20260503171505 | 13 | 146 | 0.0 | 11.3 | 0.00 | 0.00 | 0.00 | 40 | 1013.9 |